Terminal Aerodrome Forecast
Issued by NWS

Home | Current Version | Previous Version | Graphics & Text | Print | Product List | Glossary On
Versions: 1 2 3 4 5 6 7 8 9 10 11 12 13 14 15 16 17 18 19 20 21 22 23
000
FTUS43 KGRB 162000 AAA
TAFAUW
TAF AMD
KAUW 162057Z 1621/1718 31012G18KT P6SM -SN SCT012 OVC025
      TEMPO 1622/1702 3SM -SN BKN012
     FM171500 30010G17KT P6SM SCT015 OVC029=

USA.gov is the U.S. government's official web portal to all federal, state and local government web resources and services.